| time (UTC) | temp C | wind direction | speed KPH | gust KPH | rain 1hr cm | rain 24hr cm | rain mn cm | humidity % | barometer mb |
| 20260507203025 | 10 | 106 | 0.0 | 0.0 | 0.00 | 0.00 | 0.00 | 83 | 1015.1 |
| 20260507201524 | 10 | 106 | 0.0 | 0.0 | 0.00 | 0.00 | 0.00 | 81 | 1014.9 |
| 20260507200024 | 11 | 106 | 0.0 | 1.6 | 0.00 | 0.00 | 0.00 | 79 | 1014.7 |
| 20260507194518 | 11 | 106 | 0.0 | 1.6 | 0.00 | 0.00 | 0.00 | 77 | 1014.7 |
| 20260507193015 | 11 | 226 | 0.0 | 0.0 | 0.00 | 0.00 | 0.00 | 75 | 1014.7 |
| 20260507191527 | 12 | 226 | 0.0 | 1.6 | 0.00 | 0.00 | 0.00 | 73 | 1014.6 |
| 20260507190024 | 12 | 226 | 0.0 | 3.2 | 0.00 | 0.00 | 0.00 | 72 | 1014.4 |
| 20260507184526 | 12 | 226 | 0.0 | 3.2 | 0.00 | 0.00 | 0.00 | 70 | 1014.3 |
| 20260507183025 | 12 | 212 | 0.0 | 3.2 | 0.00 | 0.00 | 0.00 | 70 | 1014.2 |
| 20260507181519 | 12 | 212 | 0.0 | 3.2 | 0.00 | 0.00 | 0.00 | 72 | 1014.2 |
| 20260507180014 | 12 | 200 | 1.6 | 9.7 | 0.00 | 0.00 | 0.00 | 73 | 1014.2 |
| 20260507174535 | 12 | 214 | 1.6 | 11.3 | 0.00 | 0.00 | 0.00 | 72 | 1014.1 |
| 20260507173033 | 12 | 179 | 4.8 | 16.1 | 0.00 | 0.00 | 0.00 | 72 | 1014.0 |
| 20260507171526 | 12 | 167 | 8.0 | 16.1 | 0.00 | 0.00 | 0.00 | 73 | 1014.0 |
| 20260507170025 | 13 | 174 | 8.0 | 14.5 | 0.00 | 0.00 | 0.00 | 72 | 1014.1 |
| 20260507164520 | 13 | 129 | 6.4 | 9.7 | 0.00 | 0.00 | 0.00 | 72 | 1014.0 |
| 20260507163026 | 12 | 188 | 4.8 | 8.0 | 0.00 | 0.00 | 0.00 | 72 | 1014.0 |
| 20260507161513 | 12 | 167 | 3.2 | 8.0 | 0.00 | 0.00 | 0.00 | 72 | 1014.0 |
| 20260507160013 | 12 | 131 | 1.6 | 6.4 | 0.00 | 0.00 | 0.00 | 72 | 1014.0 |
| 20260507154516 | 12 | 169 | 1.6 | 6.4 | 0.00 | 0.00 | 0.00 | 72 | 1014.1 |
| 20260507153010 | 12 | 164 | 4.8 | 12.9 | 0.00 | 0.00 | 0.00 | 72 | 1014.2 |
| 20260507151505 | 12 | 196 | 8.0 | 12.9 | 0.00 | 0.00 | 0.00 | 68 | 1014.3 |
| 20260507150011 | 13 | 153 | 6.4 | 14.5 | 0.00 | 0.00 | 0.00 | 65 | 1014.4 |
| 20260507144514 | 13 | 188 | 9.7 | 16.1 | 0.00 | 0.00 | 0.00 | 63 | 1014.4 |
| 20260507143022 | 13 | 131 | 9.7 | 17.7 | 0.00 | 0.00 | 0.00 | 62 | 1014.4 |
| 20260507141512 | 13 | 198 | 9.7 | 17.7 | 0.00 | 0.00 | 0.00 | 60 | 1014.5 |
| 20260507140012 | 13 | 183 | 9.7 | 17.7 | 0.00 | 0.00 | 0.00 | 60 | 1014.7 |
| 20260507134526 | 14 | 235 | 11.3 | 22.5 | 0.00 | 0.00 | 0.00 | 58 | 1014.7 |
| 20260507133019 | 14 | 201 | 12.9 | 20.9 | 0.00 | 0.00 | 0.00 | 57 | 1014.7 |
| 20260507131524 | 14 | 162 | 11.3 | 20.9 | 0.00 | 0.00 | 0.00 | 57 | 1014.7 |
| 20260507130027 | 15 | 121 | 4.8 | 9.7 | 0.00 | 0.00 | 0.00 | 57 | 1014.7 |
| 20260507124519 | 15 | 183 | 8.0 | 20.9 | 0.00 | 0.00 | 0.00 | 59 | 1014.7 |
| 20260507123010 | 14 | 164 | 11.3 | 17.7 | 0.00 | 0.00 | 0.00 | 58 | 1014.9 |
| 20260507121518 | 14 | 161 | 6.4 | 14.5 | 0.00 | 0.00 | 0.00 | 58 | 1015.1 |
| 20260507120025 | 13 | 129 | 1.6 | 16.1 | 0.00 | 0.00 | 0.00 | 62 | 1015.3 |
| 20260507114520 | 12 | 214 | 3.2 | 14.5 | 0.00 | 0.00 | 0.00 | 66 | 1015.4 |
| 20260507113023 | 12 | 187 | 3.2 | 12.9 | 0.00 | 0.00 | 0.00 | 67 | 1015.5 |
| 20260507111517 | 12 | 193 | 4.8 | 11.3 | 0.00 | 0.00 | 0.00 | 70 | 1015.6 |
| 20260507110015 | 11 | 159 | 3.2 | 11.3 | 0.00 | 0.00 | 0.00 | 72 | 1015.7 |
| 20260507104527 | 11 | 136 | 3.2 | 9.7 | 0.00 | 0.00 | 0.00 | 75 | 1015.8 |
| 20260507103030 | 10 | 141 | 4.8 | 9.7 | 0.00 | 0.00 | 0.00 | 77 | 1015.9 |
| 20260507101507 | 10 | 107 | 3.2 | 9.7 | 0.00 | 0.00 | 0.00 | 78 | 1016.0 |
| 20260507100005 | 9 | 117 | 3.2 | 8.0 | 0.00 | 0.00 | 0.00 | 80 | 1016.0 |
| 20260507094519 | 9 | 193 | 3.2 | 8.0 | 0.00 | 0.00 | 0.00 | 80 | 1015.9 |
| 20260507093016 | 8 | 143 | 3.2 | 8.0 | 0.00 | 0.00 | 0.00 | 82 | 1015.9 |
| 20260507091514 | 8 | 190 | 3.2 | 6.4 | 0.00 | 0.00 | 0.00 | 84 | 1015.9 |
| 20260507090008 | 8 | 78 | 1.6 | 8.0 | 0.00 | 0.00 | 0.00 | 84 | 1015.9 |
| 20260507084509 | 7 | 146 | 3.2 | 8.0 | 0.00 | 0.00 | 0.00 | 85 | 1015.9 |
| 20260507083006 | 7 | 107 | 3.2 | 9.7 | 0.00 | 0.00 | 0.00 | 85 | 1015.9 |
| 20260507081519 | 7 | 76 | 4.8 | 8.0 | 0.00 | 0.00 | 0.00 | 86 | 1015.8 |
| 20260507080018 | 7 | 112 | 3.2 | 6.4 | 0.00 | 0.00 | 0.00 | 86 | 1015.8 |
| 20260507074516 | 7 | 207 | 1.6 | 6.4 | 0.00 | 0.00 | 0.00 | 86 | 1015.8 |
| 20260507073010 | 7 | 111 | 3.2 | 8.0 | 0.00 | 0.00 | 0.00 | 87 | 1015.7 |
| 20260507071519 | 7 | 172 | 3.2 | 8.0 | 0.00 | 0.00 | 0.00 | 87 | 1015.6 |
| 20260507070010 | 6 | 94 | 3.2 | 8.0 | 0.00 | 0.00 | 0.00 | 87 | 1015.6 |
| 20260507064523 | 6 | 108 | 3.2 | 6.4 | 0.00 | 0.00 | 0.00 | 87 | 1015.6 |
| 20260507063020 | 6 | 146 | 1.6 | 4.8 | 0.00 | 0.00 | 0.00 | 87 | 1015.6 |
| 20260507061518 | 6 | 128 | 3.2 | 8.0 | 0.00 | 0.00 | 0.00 | 87 | 1015.6 |
| 20260507060013 | 6 | 135 | 3.2 | 6.4 | 0.00 | 0.00 | 0.00 | 87 | 1015.5 |
| 20260507054509 | 6 | 115 | 3.2 | 8.0 | 0.00 | 0.00 | 0.00 | 87 | 1015.4 |
| 20260507053012 | 6 | 144 | 1.6 | 4.8 | 0.00 | 0.00 | 0.00 | 87 | 1015.5 |
| 20260507051531 | 6 | 107 | 1.6 | 4.8 | 0.00 | 0.00 | 0.00 | 87 | 1015.4 |
| 20260507050032 | 6 | 113 | 1.6 | 4.8 | 0.00 | 0.00 | 0.00 | 87 | 1015.4 |
| 20260507044522 | 6 | 121 | 0.0 | 1.6 | 0.00 | 0.00 | 0.00 | 87 | 1015.4 |
| 20260507043016 | 6 | 124 | 0.0 | 3.2 | 0.00 | 0.00 | 0.00 | 87 | 1015.3 |
| 20260507041513 | 6 | 163 | 0.0 | 3.2 | 0.00 | 0.00 | 0.00 | 87 | 1015.4 |
| 20260507040029 | 6 | 178 | 0.0 | 3.2 | 0.00 | 0.00 | 0.00 | 86 | 1015.4 |
| 20260507034534 | 6 | 141 | 1.6 | 4.8 | 0.00 | 0.00 | 0.00 | 86 | 1015.4 |
| 20260507033035 | 6 | 150 | 1.6 | 4.8 | 0.00 | 0.00 | 0.00 | 86 | 1015.4 |
| 20260507031522 | 6 | 125 | 1.6 | 4.8 | 0.00 | 0.00 | 0.00 | 86 | 1015.4 |
| 20260507030024 | 6 | 124 | 1.6 | 6.4 | 0.00 | 0.00 | 0.00 | 86 | 1015.5 |
| 20260507024516 | 6 | 92 | 3.2 | 6.4 | 0.00 | 0.00 | 0.00 | 86 | 1015.5 |
| 20260507023033 | 6 | 157 | 1.6 | 9.7 | 0.00 | 0.00 | 0.00 | 86 | 1015.6 |
| 20260507021526 | 6 | 123 | 3.2 | 9.7 | 0.00 | 0.00 | 0.00 | 85 | 1015.5 |
| 20260507020025 | 6 | 117 | 3.2 | 11.3 | 0.00 | 0.00 | 0.00 | 85 | 1015.5 |
| 20260507014507 | 6 | 117 | 3.2 | 8.0 | 0.00 | 0.00 | 0.00 | 85 | 1015.7 |
| 20260507013021 | 7 | 118 | 3.2 | 8.0 | 0.00 | 0.00 | 0.00 | 85 | 1015.6 |
| 20260507011516 | 7 | 114 | 4.8 | 8.0 | 0.00 | 0.00 | 0.00 | 84 | 1015.7 |
| 20260507010022 | 7 | 105 | 3.2 | 8.0 | 0.00 | 0.00 | 0.00 | 84 | 1015.8 |
| 20260507004509 | 7 | 146 | 1.6 | 8.0 | 0.00 | 0.00 | 0.00 | 84 | 1015.7 |
| 20260507003008 | 7 | 118 | 3.2 | 8.0 | 0.00 | 0.00 | 0.00 | 83 | 1015.8 |
| 20260507001504 | 7 | 146 | 0.0 | 3.2 | 0.00 | 0.00 | 0.00 | 83 | 1016.0 |
| 20260507000024 | 7 | 181 | 3.2 | 9.7 | 0.00 | 0.00 | 0.00 | 82 | 1015.8 |
| 20260506234518 | 7 | 234 | 3.2 | 11.3 | 0.00 | 0.00 | 0.00 | 82 | 1015.7 |
| 20260506233017 | 7 | 120 | 4.8 | 8.0 | 0.00 | 0.00 | 0.00 | 82 | 1015.6 |
| 20260506231516 | 7 | 105 | 1.6 | 6.4 | 0.00 | 0.00 | 0.00 | 82 | 1015.7 |
| 20260506230009 | 7 | 114 | 1.6 | 14.5 | 0.00 | 0.00 | 0.00 | 81 | 1015.7 |
| 20260506224507 | 7 | 102 | 4.8 | 8.0 | 0.00 | 0.00 | 0.00 | 80 | 1015.6 |
| 20260506223024 | 7 | 154 | 1.6 | 8.0 | 0.00 | 0.00 | 0.00 | 80 | 1015.6 |
| 20260506221520 | 8 | 140 | 3.2 | 9.7 | 0.00 | 0.00 | 0.00 | 79 | 1015.6 |
| 20260506220031 | 8 | 127 | 3.2 | 9.7 | 0.00 | 0.00 | 0.00 | 79 | 1015.5 |
| 20260506214516 | 8 | 145 | 4.8 | 11.3 | 0.00 | 0.00 | 0.00 | 78 | 1015.4 |
| 20260506213012 | 8 | 120 | 4.8 | 9.7 | 0.00 | 0.00 | 0.00 | 78 | 1015.3 |
| 20260506211509 | 8 | 94 | 6.4 | 12.9 | 0.00 | 0.00 | 0.00 | 78 | 1015.0 |
| 20260506210025 | 8 | 124 | 4.8 | 9.7 | 0.00 | 0.00 | 0.00 | 78 | 1014.9 |
| 20260506204526 | 8 | 136 | 4.8 | 8.0 | 0.00 | 0.00 | 0.00 | 76 | 1014.9 |